Preview of NWS' New Version of Forecast
This preview is not operational and should not be used for support decisions.

Regional Weather Roundup (RWR)

Issued by National Weather Service (NWS)

                            
000
ASCA42 TJSJ 162010
RWRPR 
PUERTO RICO/U.S. VIRGIN ISLANDS HOURLY WEATHER ROUNDUP
NATIONAL WEATHER SERVICE SAN JUAN PR
400 PM AST SAT FEB 16 2019

PRZ001>002-007>008-010-162100-
PUERTO RICO
  
CITY           SKY/WX    TMP DP  RH WIND       PRES   REMARKS
SAN JUAN LMM   MOSUNNY   86  70  58 S8G18     29.95S HX  90           
AGUADILLA      MOSUNNY   82  70  65 N8        29.98F                  
CEIBA          MOSUNNY   79  72  78 S12       29.98F                  
$$

VIZ001>002-162100-
U.S. VIRGIN ISLANDS
  
CITY           SKY/WX    TMP DP  RH WIND       PRES   REMARKS
CHARLOTTE AMA  MOSUNNY   82  73  74 SE13      29.97S                  
CHRISTIANSTED  MOSUNNY   84  73  70 SE12      29.98F HX  91           
$$

HOURLY WEATHER ROUNDUP FOR THE NEWS MEDIA
  
CITY           SKY/WX    TMP DP  RH WIND       PRES   REMARKS
ORLANDO        FAIR      79  59  50 W13       29.83F                  
NEW YORK       FAIR      44  19  36 N18       29.85F                  
NEWARK         FAIR      44  16  32 NW12G21   29.85S                  
CHICAGO        CLOUDY    29  20  69 NE12      30.05F WCI  19          
HARTFORD       FAIR      43  21  41 W12G20    29.77R                  
BOSTON         FAIR      44  19  36 W9G18     29.77R                  
DALLAS         CLOUDY    39  34  82 CALM      29.79F                  
PHILADELPHIA   FAIR      45  19  35 NW7       29.88S                  
LOS ANGELES    MOSUNNY   58  39  49 W12       30.14F                  
WASHINGTON DC  FAIR      43  22  43 N12       29.90S